User: anonymous   Login
Location: Arrakis Observatory
(44.1122°N, 95.7153°W)
Time: 00:12:09
(UTC-05:00)
Language:

Coronas F rocket - Orbit

View from above orbital plane
View from above orbital plane
View from above satellite
View from above satellite

Ground track
Ground track

The orbit data is extracted from the following two-line orbital elements,

1 26874U 01032B   15124.84924432  .00016120  00000-0  17219-3 0  9995
2 26874 082.4684 003.8023 0010013 312.4829 047.5582 15.63689138771355
Epoch (UTC): 04 May 2015 20:22:54
Eccentricity: 0.0010013
inclination: 82.4684°
perigee height: 370 km
apogee height: 384 km
right ascension of ascending node: 3.8023°
argument of perigee: 312.4829°
revolutions per day: 15.63689138
mean anomaly at epoch: 47.5582°
orbit number at epoch: 77135

The dashed part of the orbit path shows where the satellite is in the earth's shadow,  

DLR